Richlands, VA

10:48 AM EDT on October 23, 2017 (GMT -0400)
Tazewell County

Weather History for KJFZ - February, 2014

Change the Weather History Date:

Thursday, February 20, 2014

  Actual Average (KBLF) Record (KBLF)
Temperature  
Mean Temperature 59 °F -  
Max Temperature 70 °F 44 °F 67 °F (1986)
Min Temperature 48 °F 28 °F -7 °F (2015)
Degree Days  
Heating Degree Days 6    
Growing Degree Days 9 (Base 50)    
Moisture  
Dew Point 41 °F    
Average Humidity 50    
Maximum Humidity 64    
Minimum Humidity 40    
Precipitation  
Precipitation 0.00 in - - ()
Sea Level Pressure  
Sea Level Pressure 29.99 in    
Wind  
Wind Speed 7 mph (SSE)    
Max Wind Speed 17 mph    
Max Gust Speed 33 mph    
Visibility 10 miles    
Events      
Averages and records for this station are not official NWS values.
T = Trace of Precipitation, MM = Missing Value Source: NWS Daily Summary

Daily Weather History Graph

Daily Weather History Graph

Search for Another Location

Airport or City:

Trip Planner

Search our weather history database for the weather conditions in past years. The results will help you decide how hot, cold, wet, or windy it might be!

Date:

Astronomy

Feb. 20, 2014 Rise Set
Actual Time 7:09 AM EST 6:12 PM EST
Civil Twilight 6:43 AM EST 6:38 PM EST
Nautical Twilight 6:13 AM EST 7:09 PM EST
Astronomical Twilight 5:43 AM EST 7:39 PM EST
Moon 11:56 PM EST (2/20) 10:00 AM EST (2/20)
Length of Visible Light 11h 55m
Length of Day
11h 02m
Waning Gibbous, 71% of the Moon is Illuminated
Feb 20
Waning Gibbous
Feb 22
Last Quarter
Mar 1
New
Mar 8
First Quarter
Mar 16
Full

Hourly Weather History & Observations

Time (EST) Temp. Dew Point Humidity Pressure Visibility Wind Dir Wind Speed Gust Speed Precip Events Conditions
12:15 AM 49.5 °F 27.1 °F 42% 30.06 in 10.0 mi Calm Calm - N/A   Clear
12:35 AM 48.6 °F 27.5 °F 44% 30.05 in 10.0 mi Calm Calm - N/A   Clear
12:55 AM 49.1 °F 27.7 °F 44% 30.05 in 10.0 mi Calm Calm - N/A   Clear
1:15 AM 51.1 °F 29.3 °F 43% 30.05 in 10.0 mi SE 3.5 mph - N/A   Clear
1:35 AM 50.9 °F 29.8 °F 44% 30.05 in 10.0 mi SSE 3.5 mph - N/A   Clear
1:55 AM 52.9 °F 30.2 °F 42% 30.06 in 10.0 mi SSE 3.5 mph - N/A   Clear
2:15 AM 52.5 °F 30.4 °F 43% 30.07 in 10.0 mi SSE 4.6 mph - N/A   Clear
2:35 AM 50.9 °F 30.9 °F 46% 30.06 in 10.0 mi SE 5.8 mph - N/A   Clear
2:55 AM 52.0 °F 31.1 °F 45% 30.06 in 10.0 mi SSE 5.8 mph - N/A   Clear
3:15 AM 53.2 °F 32.0 °F 44% 30.07 in 10.0 mi SSE 3.5 mph - N/A   Clear
3:35 AM 52.7 °F 32.5 °F 46% 30.06 in 10.0 mi SE 4.6 mph - N/A   Clear
3:55 AM 53.6 °F 34.2 °F 48% 30.06 in 10.0 mi SSE 4.6 mph - N/A   Clear
4:15 AM 54.5 °F 36.9 °F 51% 30.07 in 10.0 mi SSE 4.6 mph - N/A   Clear
4:35 AM 54.3 °F 36.3 °F 51% 30.07 in 10.0 mi SSE 8.1 mph - N/A   Clear
4:55 AM 54.3 °F 37.0 °F 52% 30.07 in 10.0 mi SSE 6.9 mph - N/A   Clear
5:15 AM 52.9 °F 37.0 °F 55% 30.07 in 10.0 mi SE 8.1 mph - N/A   Clear
5:35 AM 54.0 °F 37.6 °F 54% 30.07 in 10.0 mi ESE 8.1 mph - N/A   Scattered Clouds
5:55 AM 53.8 °F 37.4 °F 54% 30.06 in 10.0 mi SE 8.1 mph - N/A   Clear
6:15 AM 53.6 °F 38.3 °F 56% 30.05 in 10.0 mi ESE 5.8 mph - N/A   Scattered Clouds
6:35 AM 54.5 °F 39.0 °F 56% 30.05 in 10.0 mi SE 9.2 mph - N/A   Scattered Clouds
6:55 AM 54.3 °F 38.5 °F 55% 30.06 in 10.0 mi ESE 4.6 mph - N/A   Mostly Cloudy
7:15 AM 54.0 °F 37.6 °F 54% 30.05 in 10.0 mi ESE 5.8 mph - N/A   Overcast
7:35 AM 54.0 °F 36.9 °F 52% 30.05 in 10.0 mi East 6.9 mph - N/A   Overcast
7:55 AM 54.3 °F 36.7 °F 51% 30.05 in 10.0 mi SE 5.8 mph - N/A   Overcast
8:15 AM 54.5 °F 37.0 °F 52% 30.05 in 10.0 mi ESE 8.1 mph 18.4 mph N/A   Mostly Cloudy
8:35 AM 54.7 °F 37.6 °F 53% 30.06 in 10.0 mi SE 13.8 mph 20.7 mph N/A   Scattered Clouds
8:55 AM 54.5 °F 37.4 °F 52% 30.05 in 10.0 mi SE 13.8 mph 23.0 mph N/A   Scattered Clouds
9:12 AM 55.4 °F 37.4 °F 51% 30.05 in 10.0 mi ESE 16.1 mph 23.0 mph N/A   Clear
9:15 AM 54.7 °F 37.4 °F 52% 30.05 in 10.0 mi SE 16.1 mph 23.0 mph N/A   Clear
9:35 AM 55.2 °F 37.0 °F 50% 30.05 in 10.0 mi SE 12.7 mph 20.7 mph N/A   Clear
9:52 AM 55.4 °F 37.4 °F 51% 30.05 in 10.0 mi SE 10.4 mph 19.6 mph N/A   Scattered Clouds
9:55 AM 55.8 °F 37.8 °F 51% 30.05 in 10.0 mi SE 10.4 mph 19.6 mph N/A   Scattered Clouds
10:15 AM 56.7 °F 39.0 °F 52% 30.04 in 10.0 mi SE 11.5 mph 23.0 mph N/A   Clear
10:32 AM 57.2 °F 39.2 °F 51% 30.05 in 10.0 mi SE 16.1 mph 23.0 mph N/A   Clear
10:35 AM 57.2 °F 39.9 °F 52% 30.05 in 10.0 mi SE 12.7 mph 23.0 mph N/A   Clear
10:55 AM 58.5 °F 40.5 °F 51% 30.04 in 10.0 mi SE 15.0 mph 21.9 mph N/A   Clear
11:15 AM 59.2 °F 40.6 °F 50% 30.03 in 10.0 mi SE 10.4 mph 21.9 mph N/A   Clear
11:35 AM 59.9 °F 42.8 °F 53% 30.04 in 10.0 mi SE 8.1 mph 18.4 mph N/A   Clear
11:52 AM 60.8 °F 44.6 °F 55% 30.02 in 10.0 mi SE 9.2 mph 17.3 mph N/A   Clear
11:55 AM 61.2 °F 43.7 °F 53% 30.02 in 10.0 mi SE 8.1 mph 17.3 mph N/A   Clear
12:12 PM 62.6 °F 44.6 °F 52% 30.01 in 10.0 mi SE 6.9 mph - N/A   Clear
12:15 PM 62.6 °F 44.6 °F 52% 30.01 in 10.0 mi SE 4.6 mph - N/A   Clear
12:35 PM 64.4 °F 46.2 °F 52% 30.00 in 10.0 mi SE 3.5 mph - N/A   Clear
12:55 PM 66.0 °F 47.5 °F 51% 29.98 in 10.0 mi SSE 5.8 mph - N/A   Clear
1:15 PM 66.4 °F 47.3 °F 50% 29.97 in 10.0 mi South 11.5 mph 18.4 mph N/A   Scattered Clouds
1:35 PM 68.0 °F 48.0 °F 49% 29.95 in 10.0 mi SSE 6.9 mph - N/A   Scattered Clouds
1:55 PM 69.1 °F 46.8 °F 45% 29.93 in 10.0 mi SSW 17.3 mph 26.5 mph N/A   Clear
2:15 PM 68.5 °F 45.9 °F 44% 29.93 in 10.0 mi South 12.7 mph 25.3 mph N/A   Scattered Clouds
2:35 PM 68.9 °F 45.1 °F 42% 29.94 in 10.0 mi SSW 11.5 mph 21.9 mph N/A   Clear
2:55 PM 68.4 °F 45.1 °F 43% 29.94 in 10.0 mi SSW 13.8 mph 33.4 mph N/A   Scattered Clouds
3:15 PM 68.9 °F 46.2 °F 44% 29.94 in 10.0 mi SSW 17.3 mph 25.3 mph N/A   Scattered Clouds
3:35 PM 68.9 °F 46.6 °F 45% 29.94 in 10.0 mi South 9.2 mph 23.0 mph N/A   Scattered Clouds
3:55 PM 70.0 °F 46.6 °F 43% 29.94 in 10.0 mi SSW 13.8 mph 23.0 mph N/A   Scattered Clouds
4:15 PM 70.0 °F 46.8 °F 43% 29.94 in 10.0 mi SSW 12.7 mph 23.0 mph N/A   Mostly Cloudy
4:35 PM 70.0 °F 45.1 °F 41% 29.94 in 10.0 mi SW 16.1 mph 29.9 mph N/A   Scattered Clouds
4:52 PM 69.8 °F 44.6 °F 40% 29.95 in 10.0 mi SSW 12.7 mph 21.9 mph N/A   Scattered Clouds
4:55 PM 69.8 °F 45.1 °F 41% 29.94 in 10.0 mi SW 13.8 mph 20.7 mph N/A   Scattered Clouds
5:15 PM 70.3 °F 45.5 °F 41% 29.93 in 10.0 mi SSW 13.8 mph 21.9 mph N/A   Clear
5:35 PM 69.8 °F 45.9 °F 42% 29.93 in 10.0 mi South 8.1 mph 23.0 mph N/A   Clear
5:55 PM 68.4 °F 46.6 °F 46% 29.92 in 10.0 mi South 11.5 mph 17.3 mph N/A   Clear
6:15 PM 67.3 °F 46.6 °F 47% 29.92 in 10.0 mi South 6.9 mph - N/A   Scattered Clouds
6:35 PM 65.5 °F 46.9 °F 51% 29.91 in 10.0 mi SSE 10.4 mph - N/A   Scattered Clouds
6:55 PM 64.4 °F 46.8 °F 53% 29.91 in 10.0 mi SSE 6.9 mph - N/A   Scattered Clouds
7:15 PM 64.0 °F 47.1 °F 54% 29.91 in 10.0 mi SSE 6.9 mph 16.1 mph N/A   Scattered Clouds
7:35 PM 63.7 °F 47.5 °F 56% 29.92 in 10.0 mi South 9.2 mph - N/A   Scattered Clouds
7:55 PM 64.2 °F 48.0 °F 56% 29.92 in 10.0 mi SSE 9.2 mph 17.3 mph N/A   Mostly Cloudy
8:15 PM 63.5 °F 48.4 °F 58% 29.92 in 10.0 mi SSE 8.1 mph 17.3 mph N/A   Overcast
8:35 PM 63.0 °F 49.1 °F 61% 29.91 in 10.0 mi SSE 9.2 mph 17.3 mph N/A   Overcast
8:55 PM 63.3 °F 49.8 °F 61% 29.92 in 10.0 mi SSE 8.1 mph - N/A   Scattered Clouds
9:15 PM 62.2 °F 50.0 °F 64% 29.90 in 10.0 mi SSE 11.5 mph 17.3 mph N/A   Mostly Cloudy
9:35 PM 62.6 °F 49.8 °F 63% 29.90 in 10.0 mi South 11.5 mph 20.7 mph N/A   Scattered Clouds
9:55 PM 63.5 °F 48.9 °F 59% 29.90 in 10.0 mi South 12.7 mph 18.4 mph N/A   Mostly Cloudy
10:15 PM 64.4 °F 48.2 °F 56% 29.88 in 10.0 mi South 12.7 mph 19.6 mph N/A   Overcast
10:35 PM 63.9 °F 48.2 °F 57% 29.87 in 10.0 mi South 13.8 mph 19.6 mph N/A   Mostly Cloudy
10:55 PM 64.0 °F 48.4 °F 57% 29.86 in 10.0 mi South 12.7 mph 18.4 mph N/A   Overcast
11:15 PM 64.8 °F 49.1 °F 57% 29.84 in 10.0 mi South 15.0 mph 24.2 mph N/A   Overcast
11:35 PM 64.8 °F 49.1 °F 57% 29.81 in 10.0 mi SSE 12.7 mph 24.2 mph N/A   Mostly Cloudy
11:55 PM 64.6 °F 49.1 °F 57% 29.81 in 10.0 mi South 15.0 mph 21.9 mph N/A   Clear